"Pseudo-MPEC" for P21vXoP

Created 2022 Aug 17 14:22:13 UT using Find_Orb

Click here for an explanation of pseudo-MPECs

 
 Astrometry: 
     P21vXoP* C2022 08 08LOU03nPS5Wa:YBJU!JOZua#BcX]!Wt.*I=:7eDjU!RoZN?j)D?c?F52
     P21vXoP  C2022 08 08Z@DxyyVNa:Q$ThCxYxSemh9gXB1Q_P1ZF/XbhN#(%[6n%h'#vlKdF52
     P21vXoP  C2022 08 08+8v'IM@S8TH3TdU(h8-INUNq\,mNW13I-nLZ5%r5Yt39Xo'pWPx2F52
     P21vXoP  C2022 08 08YoI?QvM?E43KnHPA8do:Q.r!5BX@ADS6Gr-SHZAstrometryrGo+F52
     P21vXoP  C2022 08 09r=.8@.:LpgM`/_P)3AQ_(*-V.1;)I\uI#))T+V:n;tyx-t)lgSC;F52
     P21vXoP  C2022 08 09*_ugbWb24F*=iM:]hh6gu0pAf^N+[ii@dV)uo0dS'BU2YCpdO5JmF52
     P21vXoP KC2022 08 10.02244402 34 13.07 +24 24 58.2    ~8A97x19.1 GXNEOCPC95
     P21vXoP KC2022 08 10.05241502 34 17.73 +24 25 06.3    ~8A97x19.7 GXNEOCPC95
     P21vXoP KC2022 08 11MRR.AA)_wf5o5E4hLR0'ei%?9Co@X?g_r?Hm`Q-7=B`,Attm'^OFH21
     P21vXoP KC2022 08 11'.eA+4;dT(#GKMaZRsV8%wgSEnktredacted;ns\3ngH/+V7/\84H21
     P21vXoP KC2022 08 11cy7DQdclickCDR0QwXCKp-:dNbsZ0CTHW=!H;,gpO1H:yL_JSUWmH21
     P21vXoP KC2022 08 12.05510302 39 33.437+24 30 50.15   ~8C37x      VNEOCPJ95
     P21vXoP KC2022 08 12.08669602 39 38.369+24 30 54.22   ~8C37 20.6 GVNEOCPJ95
     P21vXoP KC2022 08 17?_/l?M[$NR%vHe=r;(tUEs'*C4`T'Y9jL3q(ORaW_@.a,KYGT-VyH21
     P21vXoP KC2022 08 177)#LCW-Wpx])oe3jaGxHS$[Xh0WHG:KM8([IR3,6(K#^RGEyFGR$H21
     P21vXoP KC2022 08 17\,\Jmr=awEy%ZH2mTHhereOZK42L31rfor5=vqI2v?%n6gl[@K;iH21
     P21vXoP KC2022 08 17].w_8WdexplanationLC79TcNK:FtLBm,j*M6?m[6yCh9[yWaCn!H21
     P21vXoP KC2022 08 17Q2)#L)QR%y^p)e`H3]IV'kokLXhu3s-PY(e%'$Odi6flJH+qq!D3H21

Station data:
(C95) SATINO Remote Observatory, Haute Provence  (N43.932040 E5.712390)
   France.  Observer J. Jahn. 0.60-m f/3.2 Newtonian reflector + CCD.
(F52) Pan-STARRS 2, Haleakala  (N20.707382 W156.255910)  US/Hawaii.
   Observers J. Bulger, T. Dukes, T. Lowe, A. Schultz, M. Willman. Measurers
   K. Chambers, S. Chastel, T. de Boer, L. Denneau, J. Fairlamb, H.
   Flewelling, M. Huber, C.-C. Lin, E. Magnier, Y. Ramanjooloo, R. Wainscoat,
   R. Weryk. 1.8-m Ritchey-Chrétien + CCD.
(H21) Astronomical Research Observatory, Westfield  (N39.483054 W87.968270)
   US/Illinois.  Observer R. Holmes. Measurers S. Foglia, L. Buzzi, T.
   Linder, R. Holmes. 0.76-m f/3.0 astrograph + CCD0.81-m f/4.0 astrograph +
   CCD0.61-m f/4.5 astrograph + CCD0.40-m f/5.32 astrograph + CCD.
(J95) Great Shefford  (N51.474969 W1.447003)  UK/England.  Observer P.
   Birtwhistle. 0.41-m f/6.3 Schmidt-Cassegrain + CCD.

Orbital elements:  P21vXoP
   Perihelion 2022 Jul 28.03433 +/- 0.931 TT =  0:49:25 (JD 2459788.53433)
Epoch 2022 Aug 17.0 TT = JDT 2459808.5   Earth MOID: 0.4889   Ju: 0.8955
M   3.45703897 +/- 0.6              (J2000 ecliptic)          AutoNEOCP
n   0.17314913 +/- 0.0197           Peri.  141.30310 +/- 0.7
a   3.18803068 +/- 0.149            Node   209.53507 +/- 0.43
e   0.5389622 +/- 0.0262            Incl.   12.30681 +/- 0.11
P   5.69                   H 18.5   G  0.15   U 10.1
q 1.46980243 +/- 0.0124    Q 4.90625893 +/- 0.285
15 of 18 observations 2022 Aug. 8-17; mean residual 0".93
Residuals in arcseconds: 
220808 F52  .11+  .02-    220810 C95( 1.6+  4.6-)   220812 J95  .21-  .22-    
220808 F52  .05+  .04+    220810 C95( .76+  2.6-)   220817 H21  2.1-  .47-    
220808 F52  .09+  .03+    220811 H21  .27-  .04-    220817 H21  2.3-  .44-    
220808 F52  .03-  .03-    220811 H21  .62-  .19+    220817 H21  2.2-  .88-    
220809 F52  .04-  .12+    220811 H21  .55-  .32+    220817 H21  2.2-  .84-    
220809 F52  .03+  .12+    220812 J95( .66-  .79+)   220817 H21  1.8-  .65-    

Ephemerides (geocentric):
Date (UTC) HH   RA             Dec           delta  r     elong  mag " sig PA
---- --------  ------------   ------------  ------ ------ -----  --- --------
2022 08 17 14  02 53 37.767   +24 39 13.79  .98486 1.4852  96.1 21.0 1.77  70
2022 08 17 15  02 53 43.966   +24 39 15.07  .98468 1.4853  96.1 21.0 1.78  69
2022 08 17 16  02 53 50.163   +24 39 16.32  .98450 1.4854  96.1 21.0 1.80  69
2022 08 17 17  02 53 56.357   +24 39 17.54  .98432 1.4854  96.1 21.0 1.82  69
2022 08 17 18  02 54 02.548   +24 39 18.71  .98414 1.4855  96.1 21.0 1.84  69
2022 08 17 19  02 54 08.736   +24 39 19.85  .98396 1.4856  96.2 21.0 1.86  68
2022 08 17 20  02 54 14.922   +24 39 20.95  .98378 1.4856  96.2 21.0 1.87  68
2022 08 17 21  02 54 21.105   +24 39 22.02  .98360 1.4857  96.2 21.0 1.89  68
2022 08 17 22  02 54 27.285   +24 39 23.05  .98342 1.4858  96.2 21.0 1.91  68
2022 08 17 23  02 54 33.463   +24 39 24.04  .98324 1.4858  96.2 21.0 1.93  68
2022 08 18 00  02 54 39.638   +24 39 24.99  .98306 1.4859  96.2 21.0 1.95  68
2022 08 18 01  02 54 45.810   +24 39 25.91  .98288 1.4859  96.3 21.0 1.96  67
2022 08 18 02  02 54 51.980   +24 39 26.79  .98270 1.4860  96.3 21.0 1.98  67
2022 08 18 03  02 54 58.147   +24 39 27.63  .98252 1.4861  96.3 21.0 2.00  67
2022 08 18 04  02 55 04.311   +24 39 28.43  .98234 1.4861  96.3 21.0 2.02  67
2022 08 18 05  02 55 10.472   +24 39 29.20  .98216 1.4862  96.3 21.0 2.04  67
2022 08 18 06  02 55 16.631   +24 39 29.93  .98198 1.4863  96.4 21.0 2.06  66
2022 08 18 07  02 55 22.787   +24 39 30.63  .98180 1.4863  96.4 21.0 2.08  66
2022 08 18 08  02 55 28.940   +24 39 31.28  .98162 1.4864  96.4 21.0 2.10  66
2022 08 18 09  02 55 35.091   +24 39 31.90  .98144 1.4865  96.4 21.0 2.12  66
2022 08 18 10  02 55 41.239   +24 39 32.49  .98126 1.4865  96.4 21.0 2.13  66
2022 08 18 11  02 55 47.384   +24 39 33.03  .98108 1.4866  96.4 21.0 2.15  65
2022 08 18 12  02 55 53.526   +24 39 33.54  .98090 1.4866  96.5 21.0 2.17  65
2022 08 18 13  02 55 59.666   +24 39 34.01  .98072 1.4867  96.5 21.0 2.19  65
2022 08 18 14  02 56 05.802   +24 39 34.45  .98054 1.4868  96.5 21.0 2.21  65
2022 08 18 15  02 56 11.936   +24 39 34.84  .98036 1.4868  96.5 21.0 2.23  65
2022 08 18 16  02 56 18.068   +24 39 35.20  .98018 1.4869  96.5 21.0 2.25  65
2022 08 18 17  02 56 24.196   +24 39 35.53  .98000 1.4870  96.5 21.0 2.27  64
2022 08 18 18  02 56 30.322   +24 39 35.81  .97982 1.4870  96.6 21.0 2.29  64
2022 08 18 19  02 56 36.445   +24 39 36.06  .97964 1.4871  96.6 21.0 2.31  64
2022 08 18 20  02 56 42.565   +24 39 36.28  .97946 1.4872  96.6 21.0 2.34  64
2022 08 18 21  02 56 48.682   +24 39 36.45  .97929 1.4872  96.6 21.0 2.36  64
2022 08 18 22  02 56 54.797   +24 39 36.59  .97911 1.4873  96.6 21.0 2.38  64
2022 08 18 23  02 57 00.909   +24 39 36.69  .97893 1.4874  96.6 21.0 2.40  63
2022 08 19 00  02 57 07.018   +24 39 36.75  .97875 1.4874  96.7 21.0 2.42  63
2022 08 19 01  02 57 13.124   +24 39 36.78  .97857 1.4875  96.7 21.0 2.44  63
2022 08 19 02  02 57 19.228   +24 39 36.77  .97839 1.4876  96.7 21.0 2.46  63
2022 08 19 03  02 57 25.328   +24 39 36.72  .97821 1.4876  96.7 21.0 2.48  63
2022 08 19 04  02 57 31.426   +24 39 36.64  .97803 1.4877  96.7 21.0 2.50  63
2022 08 19 05  02 57 37.521   +24 39 36.52  .97785 1.4878  96.8 21.0 2.53  62
2022 08 19 06  02 57 43.613   +24 39 36.36  .97768 1.4878  96.8 21.0 2.55  62
2022 08 19 07  02 57 49.703   +24 39 36.16  .97750 1.4879  96.8 21.0 2.57  62
2022 08 19 08  02 57 55.789   +24 39 35.93  .97732 1.4880  96.8 21.0 2.59  62
2022 08 19 09  02 58 01.873   +24 39 35.66  .97714 1.4880  96.8 21.0 2.61  62
2022 08 19 10  02 58 07.954   +24 39 35.35  .97696 1.4881  96.8 21.0 2.64  62
2022 08 19 11  02 58 14.032   +24 39 35.01  .97678 1.4882  96.9 21.0 2.66  61
2022 08 19 12  02 58 20.107   +24 39 34.63  .97660 1.4882  96.9 21.0 2.68  61
2022 08 19 13  02 58 26.179   +24 39 34.21  .97642 1.4883  96.9 21.0 2.70  61